Jamestown, ND

10:50 AM CDT on June 27, 2017 (GMT -0500)
Jamestown Municipal

Weather History for KJMS - August, 2013

Change the Weather History Date:

Thursday, August 29, 2013

  Actual Average Record
Temperature  
Mean Temperature 77 °F 65 °F  
Max Temperature 86 °F 78 °F 98 °F (1961)
Min Temperature 67 °F 52 °F 34 °F (1909)
Degree Days  
Heating Degree Days 0 3  
Month to date heating degree days 21 40  
Since 1 June heating degree days 129 159  
Since 1 July heating degree days 44 62  
Cooling Degree Days 12 3  
Month to date cooling degree days 155 139  
Year to date cooling degree days 448 411  
Since 1 June cooling degree days 437 391  
Growing Degree Days 26 (Base 50)    
Moisture  
Dew Point 69 °F    
Average Humidity 78    
Maximum Humidity 100    
Minimum Humidity 55    
Precipitation  
Precipitation 0.25 in 0.07 in 1.98 in (1980)
Month to date precipitation 1.20 1.95  
Year to date precipitation 9.19 14.04  
Sea Level Pressure  
Sea Level Pressure 29.87 in    
Wind  
Wind Speed 8 mph (NNW)    
Max Wind Speed 26 mph    
Max Gust Speed 35 mph    
Visibility 8 miles    
Events Rain , Thunderstorm    
T = Trace of Precipitation, MM = Missing Value Source: NWS Daily Summary

Daily Weather History Graph

Daily Weather History Graph

Search for Another Location

Airport or City:

Trip Planner

Search our weather history database for the weather conditions in past years. The results will help you decide how hot, cold, wet, or windy it might be!

Date:

Astronomy

Aug. 29, 2013 Rise Set
Actual Time 6:50 AM CDT 8:19 PM CDT
Civil Twilight 6:18 AM CDT 8:51 PM CDT
Nautical Twilight 5:40 AM CDT 9:29 PM CDT
Astronomical Twilight 4:58 AM CDT 10:10 PM CDT
Moon 12:32 AM CDT (8/29) 4:01 PM CDT (8/29)
Length of Visible Light 14h 32m
Length of Day
13h 28m
Last Quarter, 38% of the Moon is Illuminated
Aug 29
Last Quarter
Sep 5
New
Sep 12
First Quarter
Sep 19
Full
Sep 26
Last Quarter

Hourly Weather History & Observations

Time (CDT) Temp. Heat Index Dew Point Humidity Pressure Visibility Wind Dir Wind Speed Gust Speed Precip Events Conditions
12:56 AM 75.0 °F - 72.0 °F 90% 29.91 in 5.0 mi ESE 5.8 mph - N/A   Clear
1:56 AM 75.0 °F - 73.0 °F 94% 29.89 in 4.0 mi SE 4.6 mph - N/A   Clear
2:56 AM 73.9 °F - 73.0 °F 97% 29.87 in 4.0 mi ESE 3.5 mph - N/A   Scattered Clouds
3:56 AM 73.9 °F - 72.0 °F 93% 29.84 in 6.0 mi ESE 8.1 mph - N/A   Clear
4:56 AM 73.9 °F - 73.0 °F 97% 29.82 in 5.0 mi SE 6.9 mph - N/A   Clear
5:03 AM 75.2 °F - 73.4 °F 94% 29.85 in 5.0 mi SE 9.2 mph - N/A   Scattered Clouds
5:17 AM 73.4 °F - 73.4 °F 100% 29.83 in 5.0 mi SE 9.2 mph - N/A   Mostly Cloudy
5:54 AM 73.4 °F - 69.8 °F 88% 29.93 in 4.0 mi WNW 26.5 mph 34.5 mph 0.01 in Rain , Thunderstorm Light Rain
5:56 AM 72.0 °F - 68.0 °F 87% 29.90 in 3.0 mi WNW 25.3 mph 34.5 mph 0.04 in Rain , Thunderstorm Rain
6:00 AM 69.8 °F - 66.2 °F 88% 29.91 in 2.5 mi NW 20.7 mph 34.5 mph 0.04 in Rain , Thunderstorm Heavy Thunderstorms and Rain
6:09 AM 69.8 °F - 66.2 °F 88% 29.90 in 3.0 mi NW 12.7 mph 26.5 mph 0.10 in Rain , Thunderstorm Thunderstorms and Rain
6:56 AM 69.1 °F - 66.9 °F 93% 29.85 in 10.0 mi East 4.6 mph - 0.11 in Rain , Thunderstorm Light Thunderstorms and Rain
7:48 AM 69.8 °F - 66.2 °F 88% 29.82 in 10.0 mi North 4.6 mph - 0.08 in Thunderstorm Mostly Cloudy
7:56 AM 69.1 °F - 66.9 °F 93% 29.81 in 10.0 mi Calm Calm - 0.08 in Rain , Thunderstorm Light Thunderstorms and Rain
8:19 AM 69.8 °F - 66.2 °F 88% 29.86 in 10.0 mi NNW 6.9 mph - 0.02 in   Partly Cloudy
8:56 AM 71.1 °F - 68.0 °F 90% 29.84 in 10.0 mi West 3.5 mph - 0.02 in   Clear
9:56 AM 73.0 °F - 69.1 °F 87% 29.85 in 10.0 mi SW 5.8 mph - 0.00 in   Clear
10:56 AM 78.1 °F - 69.1 °F 74% 29.85 in 10.0 mi West 6.9 mph - N/A   Clear
11:56 AM 80.1 °F 82.9 °F 69.1 °F 69% 29.86 in 10.0 mi NW 8.1 mph - N/A   Clear
12:56 PM 84.9 °F 88.8 °F 69.1 °F 59% 29.85 in 10.0 mi NNW 12.7 mph - N/A   Clear
1:56 PM 82.9 °F 86.5 °F 69.1 °F 63% 29.86 in 10.0 mi NNW 12.7 mph - N/A   Clear
2:56 PM 82.9 °F 86.5 °F 69.1 °F 63% 29.86 in 10.0 mi NNW 15.0 mph 21.9 mph N/A   Clear
3:56 PM 84.0 °F 86.5 °F 66.9 °F 56% 29.86 in 10.0 mi NNW 15.0 mph - N/A   Clear
4:56 PM 84.0 °F 87.0 °F 68.0 °F 58% 29.86 in 10.0 mi NNW 10.4 mph - N/A   Clear
5:56 PM 84.0 °F 87.0 °F 68.0 °F 58% 29.88 in 10.0 mi North 10.4 mph - N/A   Partly Cloudy
6:56 PM 82.9 °F 85.8 °F 68.0 °F 60% 29.89 in 10.0 mi North 10.4 mph - N/A   Partly Cloudy
7:56 PM 78.1 °F - 69.1 °F 74% 29.91 in 10.0 mi North 3.5 mph - N/A   Clear
8:56 PM 73.9 °F - 69.1 °F 85% 29.92 in 10.0 mi North 4.6 mph - N/A   Clear
9:56 PM 71.1 °F - 68.0 °F 90% 29.94 in 10.0 mi North 3.5 mph - N/A   Clear
10:56 PM 69.1 °F - 66.0 °F 90% 29.94 in 10.0 mi North 5.8 mph - N/A   Clear
11:56 PM 69.1 °F - 66.0 °F 90% 29.94 in 10.0 mi NE 3.5 mph - N/A   Clear